This is the latest recevied weather packets stored in our database for station/object KF6ILA. If no packets are shown the sender has not sent any weather packets the latest 10 day(s).
| Time | Temp. | Humidity | Pressure | Rain* | Wind** | Luminosity | Snow |
|---|---|---|---|---|---|---|---|
| 1778406140 | 16.67° C | 18% | 1013.2 hPa | 0 mm | - | 0 W/m² | - |
| 1778405843 | 16.67° C | 17% | 1013.3 hPa | 0 mm | - | 0 W/m² | - |
| 1778405249 | 16.67° C | 17% | 1013.3 hPa | 0 mm | - | 0 W/m² | - |
| 1778404061 | 16.67° C | 18% | 1013.2 hPa | 0 mm | - | 0 W/m² | - |
| 1778403467 | 16.67° C | 18% | 1013.3 hPa | 0 mm | - | 0 W/m² | - |
| 1778402873 | 16.67° C | 19% | 1013.3 hPa | 0 mm | - | 0 W/m² | - |
| 1778402332 | 16.67° C | 19% | 1013.4 hPa | 0 mm | - | 0 W/m² | - |
| 1778402279 | 16.67° C | 19% | 1013.4 hPa | 0 mm | - | 0 W/m² | - |
| 1778401982 | 16.67° C | 19% | 1013.4 hPa | 0 mm | - | 0 W/m² | - |
| 1778401462 | 16.67° C | 20% | 1013.3 hPa | 0 mm | - | 0 W/m² | - |
| 1778401388 | 16.67° C | 20% | 1013.3 hPa | 0 mm | - | 0 W/m² | - |
| 1778401127 | 16.67° C | 20% | 1013.5 hPa | 0 mm | - | 0 W/m² | - |
| 1778401091 | 16.67° C | 20% | 1013.5 hPa | 0 mm | - | 0 W/m² | - |
| 1778400497 | 16.67° C | 20% | 1013.5 hPa | 0 mm | - | 0 W/m² | - |
| 1778400200 | 16.67° C | 20% | 1013.5 hPa | 0 mm | - | 0 W/m² | - |
| 1778399903 | 16.67° C | 20% | 1013.5 hPa | 0 mm | - | 0 W/m² | - |
| 1778399606 | 17.22° C | 19% | 1013.5 hPa | 0 mm | - | 0 W/m² | - |
| 1778399012 | 17.22° C | 17% | 1013.6 hPa | 0 mm | - | 0 W/m² | - |
| 1778398418 | 17.22° C | 19% | 1013.5 hPa | 0 mm | - | 0 W/m² | - |
| 1778397527 | 17.78° C | 20% | 1013.6 hPa | 0 mm | - | 0 W/m² | - |
| 1778396933 | 17.78° C | 17% | 1013.6 hPa | 0 mm | - | 0 W/m² | - |
| 1778396636 | 17.78° C | 17% | 1013.7 hPa | 0 mm | - | 0 W/m² | - |
| 1778396339 | 17.78° C | 21% | 1013.6 hPa | 0 mm | - | 0 W/m² | - |
| 1778395745 | 17.78° C | 23% | 1013.6 hPa | 0 mm | - | 0 W/m² | - |
| 1778395448 | 17.78° C | 21% | 1013.6 hPa | 0 mm | - | 0 W/m² | - |
* Rain latest hour (hover to see other rain measurements)
** Current wind speed in m/s (hover to see current wind gust speed)